Showing default

WGS 7 (USA 263), 40746

Orbit data source: Space-Track

WGS 7 (USA 263), 40746 is a payload satellite owned by USAF SMC (US) in GEO that was launched on Fri, 24 Jul 2015 UTC via a DELTA 4M+(5,4) launch vehicle from the Air Force Eastern Test Range (AFETR). Payload-class satellites include a variety of spacecraft equipped with specific instruments for various scientific and technological missions. These include communications satellites like Starlink; space stations such as the ISS; scientific satellites like the Hubble; Earth observation satellites from companies like Planet Labs, Umbra, and HawkEye 360; GPS; miniature CubeSats for education and research; and military/defense satellites.

Not visible in the next 10 days
Identifier
40746, 2015-036A
Orbit
GEO
Country
Flag of USUS
Related business
Manufacturer
Boeing/ES
Mission
Operational Defense Communications
Bus & Motor
BSS-702HP, R-4D-15-375
Mass
~5,900 kg wet, ~3,300 kg dry
Launch date (UTC)
2015-07-24 (11 years ago)
Launch vehicle
DELTA 4M+(5,4)
Launch site
Air Force Eastern Test Range (AFETR)
Object type
Payload
Rocket body
Debris
Shape & HBR
Box + 2 Pan, 20.4 m
Radar Cross Section
52.962 m², Large (>1 m²)

Expand to show TLE details & history
Last TLE update: 3 days ago

TLE from 3 days ago
0 WGS 7 (USA 263)
1 40746U 15036A   26170.85629508  .00000000  00000-0  00000-0 0  9995
2 40746   0.0380  50.6595 0000215 162.0382 178.6151  1.00269373 39893
Epoch: 2026-06-19T20:33Z
TLE epoch observation values (Epoch: 2026-06-19T20:33:03.894Z)
Latitude
-0.00527°
Longitude
174.98003°
Altitude
35,787.667 km
Speed
3.075 km/s
True Right ascension
02h 05m 18s
True Declination
0° 00' 19"
Sunlit
Object was in daylight at epoch
Visualization orbit readout
Latitude
Unknown
Longitude
Unknown
Altitude
Unknown
Speed
Unknown
Apparent Right ascension
Unknown
Apparent Declination
Unknown
Sunlit
N/A
Visualization observer readout
Local Sidereal Time
21:38:31
Azimuth
Unknown
Elevation
Unknown
Doppler factor
Unknown
Orbital elements
Apogee altitude
35,789.248 km
Perigee altitude
35,787.435 km
Semi-major axis
42,166.479 km
Eccentricity
0.00002
Inclination
0.038°
RAAN
50.6595°
Arg. of periapsis
162.0382°
True anomaly
178.61516°
Mean anomaly
178.6151°
Eccentric anomaly
178.61513°
Mean motion
0.25066 °/min
Orbital period
1,436.18 mins
BSTAR
0
Loading maneuver chart data...
Computing Atmospheric mass density...
Loading historical data...
Loading historical data...
Loading historical data...
Loading historical data...
Loading historical data...
Loading historical data...
Loading historical data...
Other satellites on launch #36 in the year 2015 (2015-07-24 UTC)

Documentation

Showing up to 5 results
|